When you browse on this site, cookies collect data to enhance your experience and personalize the content and advertising you see.
Visit our Privacy Policy to learn more. By continuing to use the site, you agree to this use of cookies and data.
  • In Lithuania
  • List of Countries
  • For 7 days
  • Water Temperature
  • Satellite Maps
  • Weather Map
  • Weather Widgets
  • user-avatar
    Login

    Hourly Weather Dalat

    Today, 22 April, Monday

    Time Temperature Precipitation Wind Pressure Humidity
    00:00 +18°C° 0 mm 0 mps 650 mmHg 95%
    01:00 +18°C° 0 mm 0 mps 650 mmHg 95%
    02:00 +18°C° 0 mm 0 mps 650 mmHg 95%
    03:00 +18°C° 0 mm 0 mps 650 mmHg 95%
    04:00 +17°C° 0 mm 0 mps 650 mmHg 95%
    05:00 +19°C° 0 mm 0 mps 651 mmHg 91%
    06:00 +20°C° 0 mm 0 mps 651 mmHg 87%
    07:00 +23°C° 0 mm 1 mps 652 mmHg 80%
    08:00 +25°C° 0 mm 1 mps 653 mmHg 64%
    09:00 +28°C° 0 mm 1 mps 654 mmHg 48%
    10:00 +30°C° 0 mm 1 mps 654 mmHg 32%
    11:00 +31°C° 0 mm 2 mps 654 mmHg 31%
    12:00 +32°C° 0 mm 2 mps 654 mmHg 31%
    13:00 +32°C° 0 mm 2 mps 654 mmHg 31%
    14:00 +31°C° 0 mm 2 mps 653 mmHg 35%
    15:00 +31°C° 0 mm 2 mps 653 mmHg 39%
    16:00 +30°C° 0 mm 2 mps 652 mmHg 43%
    17:00 +27°C° 0.1 mm 2 mps 652 mmHg 56%
    18:00 +25°C° 0.1 mm 1 mps 651 mmHg 69%
    19:00 +21°C° 0 mm 1 mps 651 mmHg 82%
    20:00 +21°C° 0 mm 1 mps 651 mmHg 85%
    21:00 +20°C° 0 mm 1 mps 651 mmHg 89%
    22:00 +20°C° 0 mm 1 mps 651 mmHg 92%
    23:00 +20°C° 0 mm 1 mps 651 mmHg 92%

    Tomorrow, 23 April, Tuesday

    Time Temperature Precipitation Wind Pressure Humidity
    00:00 +20°C° 0 mm 1 mps 651 mmHg 92%
    01:00 +19°C° 0 mm 1 mps 651 mmHg 92%
    02:00 +19°C° 0 mm 1 mps 651 mmHg 90%
    03:00 +19°C° 0 mm 1 mps 651 mmHg 88%
    04:00 +19°C° 0 mm 1 mps 651 mmHg 86%
    05:00 +20°C° 0 mm 1 mps 651 mmHg 79%
    06:00 +21°C° 0 mm 1 mps 652 mmHg 72%
    07:00 +21°C° 0 mm 0 mps 652 mmHg 65%
    08:00 +25°C° 0 mm 1 mps 653 mmHg 55%
    09:00 +28°C° 0 mm 1 mps 654 mmHg 45%
    10:00 +30°C° 0 mm 2 mps 655 mmHg 35%
    11:00 +31°C° 0 mm 2 mps 655 mmHg 34%
    12:00 +32°C° 0 mm 2 mps 655 mmHg 33%
    13:00 +34°C° 0 mm 2 mps 655 mmHg 31%
    14:00 +32°C° 0 mm 2 mps 654 mmHg 36%
    15:00 +31°C° 0 mm 2 mps 654 mmHg 40%
    16:00 +30°C° 0 mm 2 mps 653 mmHg 44%
    17:00 +28°C° 0.8 mm 2 mps 652 mmHg 60%
    18:00 +25°C° 0.8 mm 1 mps 652 mmHg 75%
    19:00 +22°C° 0.8 mm 1 mps 651 mmHg 90%
    20:00 +22°C° 0 mm 1 mps 652 mmHg 92%
    21:00 +21°C° 0 mm 1 mps 652 mmHg 94%
    22:00 +21°C° 0 mm 1 mps 653 mmHg 96%
    23:00 +20°C° 0 mm 1 mps 652 mmHg 94%

    Day after tomorrow, 24 April, Wednesday

    Time Temperature Precipitation Wind Pressure Humidity
    00:00 +19°C° 0 mm 1 mps 652 mmHg 93%
    01:00 +19°C° 0 mm 1 mps 651 mmHg 91%
    02:00 +18°C° 0 mm 1 mps 651 mmHg 83%
    03:00 +18°C° 0 mm 1 mps 651 mmHg 76%
    04:00 +16°C° 0 mm 1 mps 650 mmHg 68%
    05:00 +19°C° 0 mm 1 mps 651 mmHg 61%
    06:00 +20°C° 0 mm 1 mps 652 mmHg 53%
    07:00 +22°C° 0 mm 1 mps 653 mmHg 46%
    08:00 +25°C° 0 mm 1 mps 654 mmHg 38%
    09:00 +28°C° 0 mm 1 mps 655 mmHg 30%
    10:00 +31°C° 0 mm 1 mps 656 mmHg 22%
    11:00 +32°C° 0 mm 1 mps 656 mmHg 21%
    12:00 +34°C° 0 mm 2 mps 656 mmHg 21%
    13:00 +35°C° 0 mm 2 mps 655 mmHg 21%
    14:00 +34°C° 0 mm 2 mps 654 mmHg 25%
    15:00 +32°C° 0 mm 2 mps 653 mmHg 29%
    16:00 +31°C° 0 mm 2 mps 652 mmHg 32%
    17:00 +28°C° 0 mm 2 mps 652 mmHg 48%
    18:00 +25°C° 0 mm 1 mps 651 mmHg 64%
    19:00 +21°C° 0 mm 1 mps 651 mmHg 79%
    20:00 +21°C° 0 mm 1 mps 651 mmHg 84%
    21:00 +20°C° 0 mm 1 mps 651 mmHg 88%
    22:00 +19°C° 0 mm 1 mps 652 mmHg 93%
    23:00 +19°C° 0 mm 1 mps 651 mmHg 88%

    25 April, Thursday

    Time Temperature Precipitation Wind Pressure Humidity
    00:00 +19°C° 0 mm 1 mps 651 mmHg 84%
    01:00 +18°C° 0 mm 1 mps 650 mmHg 79%
    02:00 +18°C° 0 mm 1 mps 650 mmHg 77%
    03:00 +18°C° 0 mm 1 mps 650 mmHg 74%
    04:00 +18°C° 0 mm 1 mps 650 mmHg 72%
    05:00 +20°C° 0 mm 1 mps 650 mmHg 71%
    06:00 +21°C° 0 mm 1 mps 651 mmHg 70%
    07:00 +23°C° 0 mm 1 mps 652 mmHg 70%
    08:00 +25°C° 0 mm 1 mps 653 mmHg 57%
    09:00 +28°C° 0 mm 1 mps 655 mmHg 45%
    10:00 +31°C° 0 mm 1 mps 656 mmHg 33%
    11:00 +32°C° 0 mm 1 mps 655 mmHg 30%
    12:00 +34°C° 0 mm 2 mps 655 mmHg 28%
    13:00 +35°C° 0 mm 2 mps 655 mmHg 25%
    14:00 +34°C° 0 mm 2 mps 654 mmHg 29%
    15:00 +32°C° 0 mm 2 mps 653 mmHg 32%
    16:00 +31°C° 0 mm 2 mps 652 mmHg 35%
    17:00 +28°C° 0 mm 1 mps 652 mmHg 49%
    18:00 +25°C° 0 mm 1 mps 651 mmHg 62%
    19:00 +22°C° 0 mm 1 mps 651 mmHg 76%
    20:00 +21°C° 0 mm 1 mps 651 mmHg 80%
    21:00 +20°C° 0 mm 1 mps 651 mmHg 84%
    22:00 +19°C° 0 mm 1 mps 651 mmHg 88%
    23:00 +19°C° 0 mm 1 mps 651 mmHg 83%

    26 April, Friday

    Time Temperature Precipitation Wind Pressure Humidity
    00:00 +19°C° 0 mm 1 mps 651 mmHg 79%
    01:00 +18°C° 0 mm 1 mps 650 mmHg 74%
    02:00 +18°C° 0 mm 1 mps 650 mmHg 72%
    03:00 +18°C° 0 mm 1 mps 650 mmHg 69%
    04:00 +18°C° 0 mm 1 mps 649 mmHg 66%
    05:00 +17°C° 0 mm 0 mps 650 mmHg 62%
    06:00 +19°C° 0 mm 0 mps 651 mmHg 58%
    07:00 +20°C° 0 mm 0 mps 652 mmHg 54%
    08:00 +23°C° 0 mm 0 mps 653 mmHg 45%
    09:00 +29°C° 0 mm 1 mps 654 mmHg 36%
    10:00 +32°C° 0 mm 1 mps 656 mmHg 26%
    11:00 +33°C° 0 mm 1 mps 655 mmHg 25%
    12:00 +34°C° 0 mm 1 mps 655 mmHg 23%
    13:00 +35°C° 0 mm 2 mps 654 mmHg 22%
    14:00 +34°C° 0 mm 2 mps 654 mmHg 27%
    15:00 +32°C° 0 mm 2 mps 653 mmHg 33%
    16:00 +30°C° 0 mm 2 mps 652 mmHg 38%
    17:00 +27°C° 0 mm 2 mps 652 mmHg 53%
    18:00 +24°C° 0 mm 1 mps 651 mmHg 67%
    19:00 +21°C° 0 mm 1 mps 651 mmHg 82%
    20:00 +21°C° 0 mm 1 mps 651 mmHg 86%
    21:00 +20°C° 0 mm 1 mps 651 mmHg 89%
    22:00 +18°C° 0 mm 0 mps 652 mmHg 92%
    23:00 +18°C° 0 mm 0 mps 651 mmHg 92%

    27 April, Saturday

    Time Temperature Precipitation Wind Pressure Humidity
    00:00 +18°C° 0 mm 0 mps 651 mmHg 92%
    01:00 +17°C° 0 mm 0 mps 651 mmHg 91%
    02:00 +17°C° 0 mm 0 mps 651 mmHg 91%
    03:00 +17°C° 0 mm 0 mps 651 mmHg 91%
    04:00 +17°C° 0 mm 0 mps 651 mmHg 92%
    05:00 +18°C° 0 mm 0 mps 651 mmHg 85%
    06:00 +20°C° 0 mm 0 mps 652 mmHg 79%
    07:00 +21°C° 0 mm 0 mps 653 mmHg 72%
    08:00 +24°C° 0 mm 0 mps 654 mmHg 61%
    09:00 +29°C° 0 mm 1 mps 655 mmHg 50%
    10:00 +31°C° 0 mm 1 mps 656 mmHg 39%
    11:00 +31°C° 0.1 mm 1 mps 655 mmHg 42%
    12:00 +30°C° 0.1 mm 1 mps 654 mmHg 45%
    13:00 +29°C° 0.1 mm 1 mps 653 mmHg 49%
    14:00 +27°C° 0.8 mm 1 mps 652 mmHg 57%
    15:00 +26°C° 0.8 mm 1 mps 652 mmHg 65%
    16:00 +24°C° 0.8 mm 1 mps 651 mmHg 73%
    17:00 +23°C° 0.2 mm 1 mps 651 mmHg 79%
    18:00 +22°C° 0.2 mm 1 mps 651 mmHg 85%
    19:00 +21°C° 0.2 mm 1 mps 652 mmHg 90%
    20:00 +21°C° 0 mm 1 mps 652 mmHg 92%
    21:00 +18°C° 0 mm 0 mps 652 mmHg 94%
    22:00 +18°C° 0 mm 0 mps 652 mmHg 96%
    23:00 +18°C° 0 mm 0 mps 652 mmHg 97%
    Show more